Hourly Data Report for November 01, 2015

IQALUIT CLIMATE
NUNAVUT

63°44'50.000" N
68°32'40.000" W
33.50 m
2402592
71321
XFB

Download Data

Hourly Data (November 2015)
Hourly Data Report for November 1, 2015
TIME
LST
Temp Definition
°C
Dew Point Definition
°C
Rel Hum Definition
%
Precip. Amount Definition
mm

Wind Dir Definition
10's deg

Wind Spd Definition
km/h
Visibility Definition
km
Stn Press Definition
kPa
Hmdx Definition


Wind Chill Definition


Weather Definition


00:00 -16.7 -20.2 74 0.0 34 11   101.17   -24 LegendNANA
01:00 -15.5 -19.3 73 0.0 36 24   101.21   -26 LegendNANA
02:00 -15.5 -18.9 75 0.0 33 19   101.21   -25 LegendNANA
03:00 -16.5 -19.7 76 0.0 32 23   101.26   -27 LegendNANA
04:00 -17.1 -20.2 77 0.0 33 15   101.30   -26 LegendNANA
05:00 -16.6 -19.9 75 0.0 32 16   101.33   -25 LegendNANA
06:00 -17.6 -20.7 76 0.0 32 14   101.36   -26 LegendNANA
07:00 -17.4 -20.2 79 0.0 31 14   101.39   -26 LegendNANA
08:00 -17.7 -20.7 77 0.0 33 20   101.39   -28 LegendNANA
09:00 -17.1 -20.2 76 0.0 31 16   101.45   -26 LegendNANA
10:00 -16.0 -19.4 75 0.0 34 18   101.43   -25 LegendNANA
11:00 -14.5 -17.9 75 0.0 34 19   101.44   -23 LegendNANA
12:00 -13.7 -17.3 74 0.0 35 17   101.47   -22 LegendNANA
13:00 -13.3 -16.8 75 0.0 33 14   101.49   -21 LegendNANA
14:00 -14.4 -17.4 78 0.0 31 9   101.51   -20 LegendNANA
15:00 -14.9 -17.7 79 0.0 33 5   101.52   -18 LegendNANA
16:00 -15.3 -18.5 77 0.0 32 9   101.59   -21 LegendNANA
17:00 -16.6 -19.2 81 0.0 32 5   101.59   -20 LegendNANA
18:00 -16.2 -18.9 80 0.0 32 7   101.60   -21 LegendNANA
19:00 -16.3 -19.0 80 0.0 16 2   101.64   -18 LegendNANA
20:00 -15.0 -18.1 77 0.0 32 10   101.63   -21 LegendNANA
21:00 -15.8 -18.6 79 0.0 34 9   101.63   -22 LegendNANA
22:00 -16.5 -19.2 79 0.0 34 8   101.63   -22 LegendNANA
23:00 -17.6 -20.4 79 0.0 33 16   101.62   -26 LegendNANA

Notes on Data Quality.

Legend

  • E = Estimated
  • M = Missing
  • NA = Not Available*
  • [empty] = Indicates an unobserved value
Date modified: